TimeEDT,TemperatureF,Dew PointF,Humidity,Sea Level PressureIn,VisibilityMPH,Wind Direction,Wind SpeedMPH,Gust SpeedMPH,PrecipitationIn,Events,Conditions,WindDirDegrees,DateUTC
12:10 AM,42.8,35.6,76,30.29,10.0,Calm,Calm,-,N/A,,Clear,0,2014-03-27 04:10:00
12:30 AM,42.8,37.4,81,30.28,10.0,Calm,Calm,-,N/A,,Clear,0,2014-03-27 04:30:00
12:50 AM,42.8,37.4,81,30.28,10.0,Calm,Calm,-,N/A,,Clear,0,2014-03-27 04:50:00
1:10 AM,44.6,37.4,76,30.27,10.0,Calm,Calm,-,N/A,,Clear,0,2014-03-27 05:10:00
1:30 AM,44.6,37.4,76,30.28,10.0,Calm,Calm,-,N/A,,Clear,0,2014-03-27 05:30:00
1:50 AM,44.6,35.6,71,30.28,10.0,Calm,Calm,-,N/A,,Clear,0,2014-03-27 05:50:00
2:10 AM,44.6,35.6,71,30.28,10.0,Calm,Calm,-,N/A,,Clear,0,2014-03-27 06:10:00
2:30 AM,44.6,35.6,71,30.29,10.0,Calm,Calm,-,N/A,,Clear,0,2014-03-27 06:30:00
2:50 AM,44.6,37.4,76,30.29,10.0,Calm,Calm,-,N/A,,Clear,0,2014-03-27 06:50:00
3:10 AM,44.6,39.2,81,30.27,10.0,Calm,Calm,-,N/A,,Clear,0,2014-03-27 07:10:00
3:30 AM,44.6,35.6,71,30.27,10.0,SE,3.5,-,N/A,,Clear,140,2014-03-27 07:30:00
3:50 AM,44.6,35.6,71,30.27,10.0,ESE,3.5,-,N/A,,Clear,120,2014-03-27 07:50:00
4:10 AM,46.4,33.8,62,30.27,10.0,SE,3.5,-,N/A,,Clear,140,2014-03-27 08:10:00
4:30 AM,46.4,33.8,62,30.28,10.0,SE,4.6,-,N/A,,Clear,130,2014-03-27 08:30:00
4:50 AM,46.4,33.8,62,30.28,10.0,SE,4.6,-,N/A,,Clear,140,2014-03-27 08:50:00
5:10 AM,46.4,33.8,62,30.28,10.0,SE,3.5,-,N/A,,Clear,130,2014-03-27 09:10:00
5:30 AM,44.6,35.6,71,30.29,10.0,ESE,3.5,-,N/A,,Clear,110,2014-03-27 09:30:00
5:50 AM,44.6,35.6,71,30.29,10.0,SE,3.5,-,N/A,,Clear,130,2014-03-27 09:50:00
6:10 AM,44.6,35.6,71,30.29,10.0,ESE,3.5,-,N/A,,Clear,110,2014-03-27 10:10:00
6:30 AM,44.6,35.6,71,30.31,10.0,Calm,Calm,-,N/A,,Clear,0,2014-03-27 10:30:00
6:50 AM,42.8,35.6,76,30.32,10.0,Calm,Calm,-,N/A,,Clear,0,2014-03-27 10:50:00
7:10 AM,42.8,35.6,76,30.30,10.0,East,5.8,-,N/A,,Clear,80,2014-03-27 11:10:00
7:30 AM,42.8,35.6,76,30.32,10.0,Calm,Calm,-,N/A,,Clear,0,2014-03-27 11:30:00
7:50 AM,42.8,35.6,76,30.32,10.0,ESE,4.6,-,N/A,,Clear,120,2014-03-27 11:50:00
8:10 AM,42.8,35.6,76,30.31,10.0,SE,5.8,-,N/A,,Clear,140,2014-03-27 12:10:00
8:30 AM,44.6,37.4,76,30.32,10.0,SE,5.8,-,N/A,,Clear,130,2014-03-27 12:30:00
8:50 AM,46.4,35.6,66,30.33,10.0,SE,5.8,-,N/A,,Clear,130,2014-03-27 12:50:00
9:10 AM,48.2,37.4,66,30.33,10.0,SE,8.1,-,N/A,,Clear,140,2014-03-27 13:10:00
9:30 AM,50.0,35.6,58,30.33,10.0,SE,12.7,-,N/A,,Clear,140,2014-03-27 13:30:00
9:50 AM,51.8,37.4,58,30.34,10.0,SE,8.1,-,N/A,,Clear,130,2014-03-27 13:50:00
10:10 AM,53.6,35.6,51,30.33,10.0,SE,13.8,-,N/A,,Clear,130,2014-03-27 14:10:00
10:30 AM,55.4,35.6,47,30.34,10.0,SE,12.7,-,N/A,,Clear,140,2014-03-27 14:30:00
10:50 AM,57.2,35.6,44,30.34,10.0,SE,11.5,17.3,N/A,,Clear,130,2014-03-27 14:50:00
11:10 AM,59.0,35.6,42,30.34,10.0,SE,8.1,-,N/A,,Clear,140,2014-03-27 15:10:00
11:30 AM,60.8,37.4,42,30.34,10.0,SE,12.7,-,N/A,,Scattered Clouds,130,2014-03-27 15:30:00
11:50 AM,60.8,41.0,48,30.34,10.0,SE,12.7,-,N/A,,Scattered Clouds,140,2014-03-27 15:50:00
12:10 PM,62.6,42.8,48,30.33,10.0,SE,16.1,-,N/A,,Mostly Cloudy,140,2014-03-27 16:10:00
12:30 PM,62.6,42.8,48,30.33,10.0,SSE,9.2,-,N/A,,Overcast,150,2014-03-27 16:30:00
12:50 PM,64.4,44.6,49,30.32,10.0,South,16.1,20.7,N/A,,Overcast,170,2014-03-27 16:50:00
1:10 PM,64.4,44.6,49,30.32,10.0,SE,13.8,20.7,N/A,,Overcast,140,2014-03-27 17:10:00
1:30 PM,66.2,44.6,46,30.31,10.0,SE,12.7,20.7,N/A,,Overcast,140,2014-03-27 17:30:00
1:50 PM,66.2,44.6,46,30.29,10.0,SE,16.1,20.7,N/A,,Mostly Cloudy,140,2014-03-27 17:50:00
2:10 PM,66.2,46.4,49,30.29,10.0,SE,10.4,17.3,N/A,,Mostly Cloudy,140,2014-03-27 18:10:00
2:30 PM,66.2,46.4,49,30.28,10.0,SE,11.5,17.3,N/A,,Overcast,140,2014-03-27 18:30:00
2:50 PM,66.2,46.4,49,30.28,10.0,South,12.7,18.4,N/A,,Overcast,170,2014-03-27 18:50:00
3:10 PM,66.2,46.4,49,30.27,10.0,South,12.7,16.1,N/A,,Overcast,170,2014-03-27 19:10:00
3:30 PM,68.0,46.4,46,30.26,10.0,SSE,10.4,-,N/A,,Overcast,160,2014-03-27 19:30:00
3:50 PM,68.0,46.4,46,30.25,10.0,South,12.7,17.3,N/A,,Overcast,180,2014-03-27 19:50:00
4:10 PM,68.0,46.4,46,30.25,10.0,South,9.2,-,N/A,,Overcast,180,2014-03-27 20:10:00
4:30 PM,68.0,48.2,49,30.24,10.0,South,8.1,-,N/A,,Overcast,180,2014-03-27 20:30:00
4:50 PM,68.0,48.2,49,30.24,10.0,South,11.5,17.3,N/A,,Overcast,170,2014-03-27 20:50:00
5:10 PM,68.0,48.2,49,30.24,10.0,South,13.8,-,N/A,,Overcast,180,2014-03-27 21:10:00
5:30 PM,68.0,50.0,52,30.24,10.0,SSE,8.1,-,N/A,,Mostly Cloudy,150,2014-03-27 21:30:00
5:50 PM,66.2,50.0,56,30.23,10.0,SSE,12.7,16.1,N/A,,Overcast,160,2014-03-27 21:50:00
6:10 PM,66.2,50.0,56,30.23,10.0,SSE,9.2,-,N/A,,Overcast,160,2014-03-27 22:10:00
6:30 PM,66.2,50.0,56,30.23,10.0,SSE,11.5,-,N/A,,Overcast,160,2014-03-27 22:30:00
6:50 PM,64.4,50.0,59,30.22,10.0,South,8.1,-,N/A,,Scattered Clouds,170,2014-03-27 22:50:00
7:10 PM,64.4,50.0,59,30.22,10.0,South,10.4,-,N/A,,Clear,170,2014-03-27 23:10:00
7:30 PM,64.4,50.0,59,30.22,10.0,South,6.9,-,N/A,,Clear,170,2014-03-27 23:30:00
7:50 PM,62.6,50.0,63,30.22,10.0,SSE,5.8,-,N/A,,Scattered Clouds,160,2014-03-27 23:50:00
8:10 PM,62.6,50.0,63,30.21,10.0,SSE,4.6,-,N/A,,Scattered Clouds,160,2014-03-28 00:10:00
8:30 PM,62.6,50.0,63,30.22,10.0,South,3.5,-,N/A,,Mostly Cloudy,180,2014-03-28 00:30:00
8:50 PM,62.6,50.0,63,30.21,10.0,South,3.5,-,N/A,,Overcast,190,2014-03-28 00:50:00
9:10 PM,60.8,51.8,72,30.22,10.0,Calm,Calm,-,N/A,,Overcast,0,2014-03-28 01:10:00
9:30 PM,60.8,51.8,72,30.22,10.0,Calm,Calm,-,N/A,,Overcast,0,2014-03-28 01:30:00
9:50 PM,60.8,51.8,72,30.23,10.0,Calm,Calm,-,N/A,,Overcast,0,2014-03-28 01:50:00
10:10 PM,60.8,51.8,72,30.24,10.0,Calm,Calm,-,N/A,,Overcast,0,2014-03-28 02:10:00
10:30 PM,59.0,51.8,77,30.24,10.0,Calm,Calm,-,N/A,,Overcast,0,2014-03-28 02:30:00
10:50 PM,59.0,51.8,77,30.24,10.0,Calm,Calm,-,N/A,,Scattered Clouds,0,2014-03-28 02:50:00
11:10 PM,57.2,51.8,82,30.23,10.0,Calm,Calm,-,N/A,,Clear,0,2014-03-28 03:10:00
11:30 PM,55.4,51.8,88,30.23,10.0,SE,3.5,-,N/A,,Clear,140,2014-03-28 03:30:00
11:50 PM,57.2,51.8,82,30.22,10.0,ESE,3.5,-,N/A,,Scattered Clouds,120,2014-03-28 03:50:00